TITAN 3C TRANSTAGE DEB, 43284

Orbit data source: Space-Track

TITAN 3C TRANSTAGE DEB, 43284 is space debris in GEO originally from a launch on Sun, 09 Feb 1969 UTC launched from the Air Force Eastern Test Range (AFETR). Debris objects in space refer to the collection of defunct objects orbiting the Earth. Examples of debris include non-operational satellites, rocket bodies, and fragments generated from explosions, collisions, or faulty payload assembly.

Not visible in the next 10 days
Identifier
43284, 1969-013E
Orbit
GEO
Country
Flag of USUS
Related business
Manufacturer
Martin Marietta
Mission
Spacecraft
Bus & Motor
Unknown
Mass
Unknown
Launch date (UTC)
1969-02-09 (57 years ago)
Launch vehicle
Unknown
Launch site
Air Force Eastern Test Range (AFETR)
Object type
Payload
Rocket body
Debris
Shape & HBR
Unknown shape, 1.1 m
Radar Cross Section
RCS unknown

Expand to show TLE details & history
Last TLE update: 1 day ago

TLE from 1 day ago
0 TITAN 3C TRANSTAGE DEB
1 43284U 69013E   25304.72351197 -.00000006  00000-0  00000-0 0  9996
2 43284   0.7391  72.8844 0141523  46.1102 242.4630  0.97230923 27078
Epoch: 2025-10-31T17:21Z
TLE epoch observation values (Epoch: 2025-10-31T17:21:51.434Z)
Latitude
-0.6889°
Longitude
59.27312°
Altitude
36,948.113 km
Speed
3.023 km/s
True Right ascension
00h 00m 00s
True Declination
0° 41' 18"
Sunlit
Object was in daylight at epoch
Visualization orbit readout
Latitude
Unknown
Longitude
Unknown
Altitude
Unknown
Speed
Unknown
Apparent Right ascension
Unknown
Apparent Declination
Unknown
Sunlit
N/A
Visualization observer readout
Local Sidereal Time
23:29:39
Azimuth
Unknown
Elevation
Unknown
Doppler factor
Unknown
Orbital elements
Apogee altitude
37,271.37 km
Perigee altitude
36,053.129 km
Semi-major axis
43,040.386 km
Eccentricity
0.01415
Inclination
0.7391°
RAAN
72.8844°
Arg. of periapsis
46.1102°
True anomaly
241.0368°
Mean anomaly
242.463°
Eccentric anomaly
241.74872°
Mean motion
0.24307 °/min
Orbital period
1,481.06 mins
BSTAR
0
Loading maneuver chart data...
Computing Atmospheric mass density...

Documentation

Showing up to 5 results
|